Location: La Junie
(44.7428°N, 2.1773°E)
Time: 08:08:23
(UTC+00:00)

Cosmos 2098 Rocket - Pass Details

Date: 15 May 2026
Orbit: 346 x 838 km, 82.9° (Epoch: 6 June)

Event Time Altitude Azimuth Distance (km) Brightness Sun altitude
Exits shadow 20:51:45 23° 146° (SSE) 1,415 4.3 -14.7°
Maximum altitude 20:54:05 39° 93° (E) 959 3.7 -15.0°
Drops below altitude 10° 20:58:02 10° 24° (NNE) 1,902 5.9 -15.4°
Sets 21:00:09 0° 17° (NNE) 2,721 6.8 -15.7°
